Vertical_Velocity
-0 -0 -1 -2 -2 -1 -1 1 -3 4 -8 -7 4 -9 5 8 -2 1 4 -1 2 1 4 2 1 1 0 1 2 2 -0 0 0 0 -1 -2 -2 -2 -3 -1 -3 -3 -3 -1
-1 -1 -2 -2 -2 -1 -0 -3 -2 -2 -1 -6 3 -8 -1 2 4 5 0 5 0 2 1 -0 -0 1 3 2 1 0 1 -0 0 -0 -1 -2 -1 -2 -2 -5 -3 -4 -4 -4
1 -1 -3 -1 -2 -2 1 0 0 2 -3 3 -7 -8 -2 2 1 3 3 3 5 -1 4 -0 1 2 1 3 1 2 1 0 -1 -1 -1 -2 -2 -2 -1 -1 0 0 -2 -3
-2 -1 -1 0 -1 -2 -2 -0 -0 1 0 -1 -0 -9 10 -2 -1 1 0 1 2 3 4 -3 -1 -1 3 1 2 2 1 -1 -0 -1 -2 -1 -4 -3 -6 -4 -3 -3 -1 -2
-1 -1 -2 -0 -0 0 -2 -0 -1 2 1 1 1 0 0 -1 -2 -1 0 1 2 2 3 1 1 0 3 3 1 2 1 -1 -2 -0 -0 -1 -2 -2 -2 -2 -3 -3 -1 0
-1 -0 -0 0 -0 -1 -1 -5 -3 -0 -0 1 -1 -1 0 1 -0 -0 2 -1 1 2 2 1 3 4 2 5 4 2 1 2 3 -1 -2 -3 -4 -3 -3 -5 -4 -2 -3 -2
-3 0 -1 -1 -1 -2 -3 -4 -3 -0 0 1 -0 2 -7 -2 -1 -1 -1 2 1 0 1 1 1 3 2 2 2 1 2 1 -1 -1 -2 -2 -2 -2 -3 -2 -3 -3 -2 -1
0 -0 1 1 1 -1 -1 -2 1 1 1 -2 10 -5 4 -2 -5 -2 -3 0 2 1 2 3 4 4 5 5 5 5 4 3 2 0 -0 -0 -1 -1 -2 -2 -3 -3 -1 -2
-2 -1 -0 -1 0 -0 -1 -1 0 -0 -2 2 -3 -4 -8 4 3 -1 -1 -4 -6 -7 -4 -4 -2 -1 -2 -1 0 2 1 -1 -1 -0 0 0 1 1 1 -1 -3 -3 -3 -2
-0 -3 -3 -0 -1 -1 -1 -1 -2 -1 1 -1 -6 2 -18 5 0 3 -1 0 0 1 4 2 1 4 4 4 6 6 6 2 2 -0 -2 0 -0 -1 -2 -4 -4 -4 -2 -3
1 -1 -3 -1 -2 1 -1 -2 -1 -2 -2 3 1 -2 0 3 4 0 2 3 3 -1 1 -2 1 1 -0 1 1 1 2 1 0 0 1 2 2 1 -0 -1 -4 -4 -1 -5
1 1 -2 -3 0 3 0 -1 1 0 -0 -5 1 -38 6 -2 -0 -0 2 2 4 4 4 2 3 -4 1 4 3 -1 0 3 1 0 3 0 -1 -1 -2 -0 -2 -1 0 -0
-1 5 -4 4 1 0 0 -2 6 3 4 -13 15 -23 3 4 2 3 -7 -7 -2 2 4 7 3 3 8 6 4 3 2 1 -1 -0 -0 -1 -2 -5 -5 -4 -2 -2 -2 -2
6 0 -4 -9 -10 6 3 1 -1 9 5 -11 -13 -8 -23 21 7 7 5 3 -1 -3 -2 -0 -0 2 1 0 -2 2 1 1 -1 -2 -5 -8 -7 -6 -6 -5 -4 -6 -3 -2
6 -1 3 -6 -2 3 2 6 -1 4 -16 16 -18 -2 -10 13 1 -2 2 0 -1 0 3 2 1 2 -1 0 -0 1 4 -2 -8 -2 -3 1 0 -3 -1 -1 -1 -2 -2 -2
-3 -12 -3 -2 -6 -2 1 -12 -2 0 9 -5 8 -24 12 7 4 4 8 2 -1 -0 -0 1 2 -2 5 12 4 -4 -5 -2 -1 1 2 2 -2 0 2 -0 -3 -2 -2 -0
7 3 3 -12 6 1 -5 -13 6 4 1 10 2 13 11 6 2 -0 4 0 -2 -5 -2 -2 -0 1 2 -2 -6 -0 -0 1 1 1 5 -1 -4 -2 2 -0 -1 3 -3 -2
3 6 13 -11 -0 5 -7 3 6 6 4 10 10 9 3 -3 -1 1 -2 -7 -6 -4 -3 5 3 4 1 0 0 -3 -1 -1 -3 -2 -5 -2 -2 -1 3 -1 3 1 -3 1
12 11 3 -0 2 -19 -17 2 -1 -2 -6 -2 -2 1 4 1 -4 1 -4 1 3 13 5 4 2 -3 -4 -4 -3 -6 0 1 2 -2 -3 0 -3 -4 -1 -2 -4 -0 -8 -1
5 5 9 5 3 1 -0 -1 -0 -1 0 1 3 1 -11 -1 -14 -0 -0 3 3 0 -0 -5 -4 -2 2 1 -3 -3 -2 -6 -0 -3 -1 -1 1 -3 -3 1 -1 2 -0 -4
-0 -1 -2 0 5 -8 1 4 3 -0 3 -2 3 1 -3 1 2 2 5 6 -4 -7 2 -4 -4 1 1 3 -5 -4 -6 -1 -4 -1 -3 2 2 -3 1 -5 -0 -1 -2 -5
3 1 -2 5 3 -3 2 2 4 -0 7 -6 -3 -4 1 -2 2 5 -2 -7 -4 -4 -2 7 -3 -2 5 3 -5 -5 -2 -0 -0 -2 -1 -2 1 0 -2 -4 2 0 -3 -1
-6 -4 -3 -3 3 50 7 3 2 -2 1 -1 -1 4 5 -0 -4 -5 -6 -4 3 -2 -4 -3 -7 -8 11 0 -1 -5 1 -5 -5 -2 -2 -2 -1 0 2 -4 -0 -1 0 -2
-6 4 -9 16 8 8 14 3 8 -1 -1 -2 -4 -3 -5 -8 -5 -2 0 1 -0 3 -4 -4 -3 5 -0 0 -0 -1 -6 -2 -0 -3 1 1 -1 -0 -0 -1 -1 -1 0 0
6 3 -1 -12 19 12 -3 -3 -2 -2 -5 -6 -3 -2 -3 -3 2 -4 -1 -2 -3 -3 1 0 -2 -3 -4 -5 4 3 -2 -2 1 -0 -1 1 -1 -1 -0 0 -2 -0 2 1
-0 6 6 4 -2 4 0 -2 -4 -2 -1 -3 -3 -2 0 -1 -1 -3 1 -2 -4 -3 -3 -2 1 -3 -2 -0 -1 -1 1 -1 -1 -0 -1 -2 -2 -0 -0 -1 0 8 2 1
Height
3130 3129 3126 3124 3121 3120 3118 3114 3108 3105 3098 3094 3090 3082 3082 3081 3076 3076 3078 3078 3079 3082 3085 3086 3087 3090 3091 3095 3097 3099 3099 3099 3099 3098 3097 3096 3094 3093 3091 3090 3086 3083 3080 3079
3129 3126 3125 3122 3120 3118 3115 3110 3106 3100 3095 3088 3081 3071 3069 3067 3066 3067 3068 3071 3071 3075 3077 3079 3082 3084 3087 3089 3092 3093 3094 3095 3095 3094 3093 3093 3091 3089 3086 3084 3081 3077 3075 3074
3126 3125 3123 3120 3117 3114 3112 3108 3103 3098 3089 3084 3077 3066 3064 3063 3062 3061 3062 3064 3067 3067 3071 3073 3076 3078 3080 3085 3087 3088 3089 3089 3090 3090 3089 3088 3087 3085 3082 3079 3076 3073 3069 3066
3124 3122 3120 3117 3115 3112 3107 3104 3099 3092 3087 3085 3080 3074 3068 3063 3060 3060 3060 3061 3063 3064 3066 3067 3069 3072 3075 3079 3082 3083 3083 3084 3084 3083 3083 3081 3080 3078 3075 3072 3068 3066 3063 3059
3122 3119 3117 3115 3113 3110 3108 3102 3096 3089 3085 3082 3080 3078 3066 3064 3062 3060 3060 3060 3061 3061 3062 3063 3064 3067 3071 3073 3077 3078 3078 3078 3078 3077 3076 3075 3074 3071 3069 3067 3063 3058 3054 3051
3118 3116 3114 3112 3110 3108 3104 3099 3091 3087 3085 3084 3079 3080 3068 3065 3063 3061 3060 3059 3058 3059 3060 3060 3062 3064 3066 3070 3072 3072 3072 3072 3071 3070 3069 3068 3066 3063 3061 3059 3056 3053 3050 3045
3116 3112 3111 3110 3108 3106 3103 3099 3094 3090 3085 3080 3077 3076 3065 3064 3062 3061 3059 3058 3057 3058 3059 3059 3060 3063 3065 3067 3067 3067 3066 3065 3064 3063 3062 3060 3057 3055 3053 3050 3048 3045 3043 3040
3113 3109 3108 3107 3106 3104 3101 3101 3101 3097 3084 3080 3078 3070 3063 3061 3059 3058 3058 3058 3057 3057 3057 3058 3059 3060 3061 3062 3062 3061 3060 3058 3057 3055 3053 3051 3048 3046 3044 3042 3039 3036 3033 3031
3112 3109 3106 3104 3102 3104 3100 3100 3100 3096 3090 3088 3072 3068 3063 3059 3057 3056 3056 3056 3056 3056 3056 3056 3056 3056 3057 3057 3057 3055 3054 3052 3051 3048 3045 3043 3040 3037 3035 3032 3030 3028 3025 3021
3108 3106 3102 3101 3100 3100 3099 3098 3097 3095 3089 3077 3066 3064 3064 3061 3057 3056 3055 3054 3054 3053 3053 3053 3053 3052 3052 3051 3051 3049 3047 3045 3042 3039 3036 3032 3030 3027 3025 3023 3021 3018 3016 3013
3105 3104 3100 3099 3096 3094 3094 3092 3093 3093 3090 3084 3068 3060 3061 3059 3056 3055 3051 3051 3051 3051 3051 3049 3048 3047 3046 3045 3043 3041 3039 3037 3033 3030 3027 3024 3020 3017 3015 3014 3012 3009 3007 3004
3101 3099 3095 3095 3092 3089 3089 3087 3087 3087 3084 3080 3073 3054 3054 3054 3054 3053 3051 3049 3047 3045 3044 3042 3040 3038 3038 3035 3033 3030 3028 3026 3022 3019 3017 3014 3012 3010 3007 3005 3002 2999 2996 2993
3096 3094 3092 3088 3088 3086 3085 3084 3083 3079 3076 3070 3071 3053 3053 3053 3051 3048 3045 3043 3040 3036 3035 3034 3031 3029 3028 3025 3023 3020 3016 3013 3012 3010 3009 3006 3003 3001 2998 2995 2992 2989 2985 2983
3092 3089 3088 3084 3081 3083 3079 3075 3075 3073 3067 3056 3057 3042 3051 3049 3045 3041 3036 3032 3028 3027 3026 3024 3021 3020 3017 3015 3013 3011 3009 3006 3004 3001 2999 2996 2993 2990 2986 2983 2980 2976 2973 2969
3087 3079 3080 3074 3072 3072 3068 3067 3065 3058 3053 3053 3038 3044 3040 3041 3034 3029 3027 3025 3024 3022 3019 3017 3015 3013 3011 3009 3006 3003 3000 2997 2994 2991 2987 2985 2981 2978 2974 2970 2966 2962 2958 2954
3076 3068 3068 3058 3062 3060 3053 3054 3050 3046 3042 3039 3036 3033 3036 3032 3029 3026 3022 3019 3018 3016 3014 3012 3009 3006 3003 3000 2997 2994 2991 2988 2984 2981 2977 2974 2970 2965 2960 2956 2951 2946 2943 2939
3067 3064 3061 3048 3055 3051 3045 3041 3039 3036 3035 3034 3033 3032 3029 3025 3021 3019 3016 3014 3012 3008 3005 3004 3001 2998 2994 2991 2988 2984 2981 2978 2974 2970 2966 2961 2957 2953 2948 2943 2938 2934 2929 2925
3054 3055 3054 3045 3049 3043 3036 3035 3033 3031 3031 3030 3028 3023 3019 3017 3015 3013 3009 3007 3004 3001 2998 2995 2993 2989 2986 2984 2981 2977 2972 2968 2963 2959 2954 2949 2945 2940 2934 2929 2924 2919 2914 2910
3048 3047 3046 3044 3040 3032 3035 3029 3028 3026 3026 3024 3021 3018 3015 3012 3008 3007 3003 2998 2996 2994 2991 2988 2986 2984 2981 2976 2972 2967 2963 2958 2952 2947 2942 2936 2931 2926 2921 2915 2910 2905 2899 2895
3041 3042 3044 3041 3037 3028 3026 3024 3023 3021 3020 3017 3015 3013 3012 3008 3002 2999 2996 2993 2989 2986 2984 2983 2980 2977 2972 2967 2962 2957 2951 2948 2942 2936 2931 2925 2918 2912 2906 2900 2895 2890 2884 2880
3039 3038 3038 3036 3031 3027 3023 3020 3020 3021 3019 3013 3010 3005 3001 2998 2996 2993 2990 2987 2985 2982 2980 2977 2974 2969 2964 2958 2952 2947 2941 2936 2930 2923 2918 2911 2904 2897 2891 2884 2879 2874 2868 2864
3037 3035 3033 3031 3028 3024 3019 3017 3018 3015 3010 3006 3002 2998 2995 2992 2990 2988 2985 2982 2980 2978 2974 2971 2965 2961 2956 2948 2941 2936 2930 2924 2917 2910 2903 2896 2889 2882 2875 2868 2864 2858 2853 2849
3031 3031 3028 3028 3024 3022 3013 3012 3010 3007 3003 3000 2997 2994 2991 2988 2986 2983 2980 2978 2974 2970 2966 2961 2956 2950 2944 2936 2928 2922 2917 2910 2903 2896 2888 2880 2873 2866 2860 2854 2849 2845 2840 2837
3023 3021 3021 3021 3020 3012 3008 3006 3005 3003 3000 2997 2994 2991 2987 2985 2982 2978 2975 2970 2965 2961 2956 2951 2944 2937 2932 2925 2918 2911 2904 2897 2889 2881 2873 2865 2858 2852 2847 2842 2838 2834 2830 2827
3018 3014 3013 3011 3012 3008 3003 3003 3001 3000 2998 2994 2992 2988 2984 2980 2976 2971 2967 2962 2958 2953 2947 2941 2935 2929 2923 2917 2909 2901 2892 2884 2876 2868 2860 2854 2847 2842 2837 2834 2830 2827 2825 2821
3010 3009 3009 3006 3004 3004 3002 3000 2999 2998 2994 2991 2987 2983 2979 2974 2970 2965 2960 2955 2950 2945 2940 2934 2928 2920 2913 2906 2898 2889 2880 2872 2864 2857 2850 2845 2840 2836 2832 2828 2825 2823 2818 2815